Amateur Radio Satellites - All Passes

Search period start: 24 May 2013 14:07
Search period end: 25 May 2013 14:07
Location: Unspecified, 0.0000°N, 0.0000°E

Satellite Date Start Highest point End Downlink Frequencies (MHz)
Time Altitude Azimuth
MaSat-1 24 May 14:30:13 14:30:49 11° 250° (WSW) 14:31:26 437.345 MHz
Oscar 16 24 May 14:36:09 14:40:01 21° 77° (ENE) 14:43:52 437.025 USB, Beacon 2401.1428
AO-27 24 May 14:48:57 14:52:39 20° 77° (ENE) 14:56:21 436.795 MHz FM
ITAMSAT 1 24 May 14:54:53 14:58:54 23° 77° (ENE) 15:02:54 435.822 SSB
AO-Echo 24 May 15:28:32 15:31:05 14° 78° (ENE) 15:33:35 ?
Oscar 19 24 May 15:34:18 15:39:30 88° 258° (WSW) 15:44:42 437.125 CW, 437.150 USB
Uribyol 2 24 May 15:34:20 15:39:30 77° 77° (ENE) 15:44:39 436.500 FM
RS-15 24 May 15:39:25 15:51:21 57° 111° (ESE) 16:03:01 29.354 - 29.394 USB, Beacon 29.352 USB
Oscar 16 24 May 16:15:03 16:19:06 24° 257° (WSW) 16:23:10 437.025 USB, Beacon 2401.1428
AO-27 24 May 16:27:45 16:31:55 25° 257° (WSW) 16:36:04 436.795 MHz FM
ITAMSAT 1 24 May 16:34:17 16:38:08 22° 257° (WSW) 16:42:00 435.822 SSB
TMSAT-1 24 May 16:39:20 16:42:41 17° 77° (ENE) 16:46:00 436.925 FM
Uosat F 24 May 16:58:45 17:03:44 68° 77° (ENE) 17:08:41 435.120 FM
Gurwin Techsat 1B 24 May 17:00:16 17:05:27 54° 78° (ENE) 17:10:35 435.225 FM
AO-Echo 24 May 17:05:09 17:09:39 32° 257° (WSW) 17:14:00 ?
AO-40 24 May 17:07:18 17:12:50 89° 171° (S) 17:19:58 Beacon 2401.320
AO-7 24 May 17:09:00 17:12:38 14° 73° (ENE) 17:16:15 29.400 - 29.500 MHz
Saudisat 1A 24 May 17:13:57 17:18:20 77° 248° (WSW) 17:22:39 436.775 MHz
RS-15 24 May 17:53:49 18:03:23 27° 291° (WNW) 18:12:52 29.354 - 29.394 USB, Beacon 29.352 USB
TMSAT-1 24 May 18:17:46 18:22:20 30° 257° (WSW) 18:26:55 436.925 FM
PCSat 24 May 18:42:53 18:48:05 50° 71° (ENE) 18:53:18 145.825 MHz
PANSAT 24 May 18:52:53 18:56:20 30° 30° (NNE) 18:59:47 not established
STRAND 1 24 May 18:56:26 18:58:02 11° 103° (ESE) 18:59:38 ?
AO-7 24 May 18:56:45 19:04:59 71° 254° (WSW) 19:13:13 29.400 - 29.500 MHz
SO-50 24 May 19:05:49 19:07:42 13° 67° (ENE) 19:09:36 436.795 FM
Sapphire 24 May 19:15:43 19:21:06 73° 251° (WSW) 19:26:30 437.095 MHz 1200 baud AX-25 AFSK
PCSat 24 May 20:31:00 20:31:17 10° 250° (WSW) 20:31:33 145.825 MHz
STRAND 1 24 May 20:32:07 20:36:56 42° 283° (WNW) 20:41:47 ?
PANSAT 24 May 20:33:04 20:36:38 34° 210° (SSW) 20:40:12 not established
Hamsat 24 May 20:38:26 20:42:38 74° 79° (ENE) 20:46:48 145.90 MHz
SO-50 24 May 20:44:13 20:48:03 29° 248° (WSW) 20:51:56 436.795 FM
JAS-1B 24 May 21:12:53 21:22:49 75° 76° (ENE) 21:31:55 435.800 - 435.900 CW/SSB
SO-67 24 May 21:46:25 21:49:42 34° 259° (W) 21:52:58 435.3500 MHz FM
UOSAT-12 24 May 21:55:45 21:58:24 15° 68° (ENE) 22:01:03 437.025 FM, 437.400 FM
JAS-2 24 May 21:57:37 21:59:31 11° 74° (ENE) 22:01:27 435.800 - 435.900 CW/SSB, 435.910 FM
Oscar 11 24 May 22:42:38 22:45:25 17° 78° (ENE) 22:48:12 145.825 FM, Beacon 2401.500 USB
HO-68 24 May 22:43:19 22:50:11 50° 75° (ENE) 22:57:00 435.675 MHz FM
KITSAT 1 24 May 22:48:17 22:56:20 84° 290° (WNW) 23:04:23 435.175 FM
AO-40 24 May 22:57:00 05:27:45 90° 178° (S) 12:08:50 Beacon 2401.320
JAS-1B 24 May 23:06:46 23:12:30 17° 254° (WSW) 23:18:06 435.800 - 435.900 CW/SSB
UOSAT-12 24 May 23:34:30 23:38:19 26° 248° (WSW) 23:42:09 437.025 FM, 437.400 FM
JAS-2 24 May 23:36:46 23:43:52 78° 257° (WSW) 23:51:35 435.800 - 435.900 CW/SSB, 435.910 FM
ISS 24 May 23:44:53 23:46:06 12° 126° (SE) 23:47:19 145.800 FM
OPAL 25 May 00:08:41 00:13:55 85° 256° (WSW) 00:19:07 ?
Oscar 11 25 May 00:18:17 00:21:23 19° 258° (WSW) 00:24:29 145.825 FM, Beacon 2401.500 USB
Oscar 10/S400 25 May 00:22:59 00:43:38 48° 151° (SSE) 10:56:14 145.825 - 145.975 CW/USB, Beacon 145.810 USB
HO-68 25 May 00:33:10 00:37:31 17° 255° (WSW) 00:41:52 435.675 MHz FM
MaSat-1 25 May 01:11:00 01:18:24 57° 107° (ESE) 01:25:29 437.345 MHz
ISS 25 May 01:20:04 01:22:37 21° 306° (NW) 01:25:09 145.800 FM
Oscar 19 25 May 02:31:38 02:34:19 14° 103° (ESE) 02:36:59 437.125 CW, 437.150 USB
Uribyol 2 25 May 02:33:12 02:35:21 13° 103° (ESE) 02:37:29 436.500 FM
MaSat-1 25 May 02:55:33 03:00:17 18° 285° (WNW) 03:04:51 437.345 MHz
Oscar 16 25 May 03:09:00 03:14:00 55° 102° (ESE) 03:19:00 437.025 USB, Beacon 2401.1428
RS-15 25 May 03:22:46 03:32:54 45° 69° (ENE) 03:43:08 29.354 - 29.394 USB, Beacon 29.352 USB
AO-27 25 May 03:22:51 03:27:57 54° 103° (ESE) 03:33:03 436.795 MHz FM
ITAMSAT 1 25 May 03:28:54 03:34:03 63° 103° (ESE) 03:39:14 435.822 SSB
AO-Echo 25 May 03:55:35 03:59:59 33° 103° (ESE) 04:04:32 ?
Oscar 19 25 May 04:08:50 04:13:23 33° 282° (WNW) 04:17:58 437.125 CW, 437.150 USB
Uribyol 2 25 May 04:09:43 04:14:33 39° 283° (WNW) 04:19:23 436.500 FM
TMSAT-1 25 May 05:15:47 05:20:53 49° 102° (ESE) 05:25:59 436.925 FM
Saudisat 1A 25 May 05:20:49 05:25:05 47° 292° (WNW) 05:29:26 436.775 MHz
Uosat F 25 May 05:28:42 05:33:33 50° 283° (WNW) 05:38:27 435.120 FM
AO-7 25 May 05:32:31 05:38:57 25° 107° (ESE) 05:45:20 29.400 - 29.500 MHz
RS-15 25 May 05:35:48 05:44:48 31° 248° (WSW) 05:54:04 29.354 - 29.394 USB, Beacon 29.352 USB
AO-Echo 25 May 05:36:02 05:38:33 14° 282° (WNW) 05:41:07 ?
Gurwin Techsat 1B 25 May 05:38:52 05:44:00 52° 282° (WNW) 05:49:10 435.225 FM
Sapphire 25 May 06:10:13 06:14:26 23° 110° (ESE) 06:18:38 437.095 MHz 1200 baud AX-25 AFSK
PANSAT 25 May 06:41:37 06:45:11 33° 150° (SSE) 06:48:45 not established
SO-50 25 May 07:17:35 07:21:38 26° 112° (ESE) 07:25:39 436.795 FM
PCSat 25 May 07:19:18 07:24:31 51° 289° (WNW) 07:29:44 145.825 MHz
AO-7 25 May 07:23:34 07:31:21 44° 286° (WNW) 07:39:10 29.400 - 29.500 MHz
STRAND 1 25 May 07:26:36 07:30:58 29° 77° (ENE) 07:35:19 ?
Sapphire 25 May 07:53:25 07:57:35 23° 290° (WNW) 08:01:45 437.095 MHz 1200 baud AX-25 AFSK
PANSAT 25 May 08:21:57 08:25:30 32° 330° (NNW) 08:29:02 not established
Hamsat 25 May 08:46:21 08:50:44 83° 281° (WNW) 08:55:09 145.90 MHz
SO-50 25 May 08:58:54 09:02:01 17° 292° (WNW) 09:05:07 436.795 FM
KITSAT 1 25 May 09:05:11 09:09:13 14° 69° (ENE) 09:13:13 435.175 FM
STRAND 1 25 May 09:06:48 09:09:54 16° 257° (WSW) 09:12:59 ?
JAS-1B 25 May 09:24:51 09:30:31 80° 103° (ESE) 09:36:46 435.800 - 435.900 CW/SSB
SO-67 25 May 09:34:00 09:37:31 58° 281° (W) 09:41:03 435.3500 MHz FM
UOSAT-12 25 May 10:05:14 10:08:55 25° 112° (ESE) 10:12:36 437.025 FM, 437.400 FM
HO-68 25 May 10:35:01 10:41:41 42° 105° (ESE) 10:48:20 435.675 MHz FM
Oscar 11 25 May 10:51:30 10:54:58 23° 102° (ESE) 10:58:26 145.825 FM, Beacon 2401.500 USB
KITSAT 1 25 May 10:56:21 11:04:21 66° 250° (WSW) 11:12:22 435.175 FM
OPAL 25 May 11:04:41 11:07:04 14° 105° (ESE) 11:09:27 ?
JAS-2 25 May 11:12:19 11:17:59 57° 102° (ESE) 11:23:10 435.800 - 435.900 CW/SSB, 435.910 FM
UOSAT-12 25 May 11:46:20 11:48:50 15° 292° (WNW) 11:51:21 437.025 FM, 437.400 FM
HO-68 25 May 12:23:56 12:29:02 21° 285° (WNW) 12:34:10 435.675 MHz FM
Oscar 11 25 May 12:28:31 12:30:55 15° 282° (WNW) 12:33:20 145.825 FM, Beacon 2401.500 USB
OPAL 25 May 12:41:18 12:45:41 33° 284° (WNW) 12:50:07 ?
ISS 25 May 12:55:08 12:58:11 32° 234° (SW) 13:01:14 145.800 FM
MaSat-1 25 May 13:43:43 13:46:06 46° 252° (WSW) 13:48:42 437.345 MHz

Developed and maintained by Chris Peat, Heavens-Above GmbH. Please read the updated FAQ before sending e-mail. Imprint. DLR
